PSBRA SBZM-SBRJ

Flight info

Callsign PSBRA
Flight time 0h 32m
Altitude 12000
Route SURNA DCT EGDUT DCT GELUT
Aircraft BE20/L-SBGRY/S

Departure

Time 2026-05-09 00:48
Airport Presidente Itamar Franco Airport (SBZM)

Arrival

Time 2026-05-09 01:20
Airport Santos Dumont Airport (SBRJ)
Time Latitude Longitude Altitude Speed Heading
2026-05-09 00:33 -21.50903 -43.16194 1319 ft 0 kts 231°
2026-05-09 00:42 -21.50905 -43.16196 1306 ft 3 kts 231°
2026-05-09 00:43 -21.50896 -43.16237 1325 ft 11 kts 325°
2026-05-09 00:43 -21.50889 -43.16298 1325 ft 13 kts 232°
2026-05-09 00:43 -21.50961 -43.16398 1325 ft 13 kts 234°
2026-05-09 00:43 -21.50998 -43.16452 1324 ft 10 kts 233°
2026-05-09 00:44 -21.51055 -43.16535 1324 ft 18 kts 234°
2026-05-09 00:44 -21.51142 -43.16661 1324 ft 24 kts 234°
2026-05-09 00:44 -21.51228 -43.16797 1324 ft 16 kts 266°
2026-05-09 00:44 -21.51209 -43.16942 1325 ft 23 kts 278°
2026-05-09 00:45 -21.51202 -43.17097 1324 ft 22 kts 262°
2026-05-09 00:45 -21.51282 -43.17249 1324 ft 27 kts 233°
2026-05-09 00:45 -21.51406 -43.17428 1322 ft 33 kts 234°
2026-05-09 00:45 -21.51554 -43.17638 1322 ft 38 kts 232°
2026-05-09 00:46 -21.51722 -43.17877 1325 ft 42 kts 233°
2026-05-09 00:46 -21.51904 -43.18140 1325 ft 43 kts 233°
2026-05-09 00:46 -21.52020 -43.18270 1323 ft 5 kts 277°
2026-05-09 00:46 -21.51978 -43.18244 1324 ft 10 kts 54°
2026-05-09 00:47 -21.51977 -43.18242 1324 ft 0 kts 54°
2026-05-09 00:47 -21.51912 -43.18155 1325 ft 41 kts 51°
2026-05-09 00:47 -21.51617 -43.17730 1323 ft 99 kts 53°
2026-05-09 00:47 -21.51099 -43.17006 1360 ft 139 kts 52°
2026-05-09 00:48 -21.50487 -43.16140 1736 ft 149 kts 50°
2026-05-09 00:48 -21.49804 -43.15204 1983 ft 168 kts 50°
2026-05-09 00:48 -21.49028 -43.14206 2233 ft 179 kts 45°
2026-05-09 00:48 -21.48245 -43.13196 2676 ft 174 kts 56°
2026-05-09 00:49 -21.47832 -43.11968 3072 ft 179 kts 76°
2026-05-09 00:49 -21.47748 -43.10638 3516 ft 179 kts 90°
2026-05-09 00:49 -21.47918 -43.09305 3986 ft 180 kts 100°
2026-05-09 00:49 -21.48509 -43.08080 4293 ft 195 kts 127°
2026-05-09 00:50 -21.49638 -43.07182 4281 ft 218 kts 162°
2026-05-09 00:50 -21.51123 -43.07250 4483 ft 213 kts 204°
2026-05-09 00:50 -21.52427 -43.07944 4758 ft 207 kts 208°
2026-05-09 00:50 -21.53722 -43.08611 5015 ft 205 kts 206°
2026-05-09 00:51 -21.55021 -43.09227 5274 ft 204 kts 205°
2026-05-09 00:51 -21.56317 -43.09835 5554 ft 200 kts 205°
2026-05-09 00:51 -21.57578 -43.10433 5890 ft 195 kts 206°
2026-05-09 00:51 -21.58806 -43.11016 6224 ft 192 kts 207°
2026-05-09 00:52 -21.60021 -43.11595 6555 ft 191 kts 208°
2026-05-09 00:52 -21.61231 -43.12172 6874 ft 189 kts 207°
2026-05-09 00:52 -21.62434 -43.12741 7199 ft 189 kts 207°
2026-05-09 00:52 -21.63637 -43.13314 7528 ft 189 kts 207°
2026-05-09 00:53 -21.64846 -43.13889 7860 ft 191 kts 207°
2026-05-09 00:53 -21.66066 -43.14471 8199 ft 193 kts 207°
2026-05-09 00:53 -21.67299 -43.15057 8539 ft 195 kts 206°
2026-05-09 00:53 -21.68540 -43.15647 8885 ft 195 kts 206°
2026-05-09 00:54 -21.69788 -43.16241 9233 ft 197 kts 206°
2026-05-09 00:54 -21.71045 -43.16840 9588 ft 198 kts 207°
2026-05-09 00:54 -21.72307 -43.17440 9938 ft 199 kts 207°
2026-05-09 00:54 -21.73583 -43.18049 10262 ft 201 kts 207°
2026-05-09 00:55 -21.74862 -43.18659 10585 ft 201 kts 207°
2026-05-09 00:55 -21.76134 -43.19266 10912 ft 203 kts 206°
2026-05-09 00:55 -21.77429 -43.19882 11243 ft 204 kts 206°
2026-05-09 00:55 -21.78727 -43.20502 11577 ft 205 kts 206°
2026-05-09 00:56 -21.80034 -43.21125 11915 ft 206 kts 206°
2026-05-09 00:56 -21.81371 -43.21764 12053 ft 218 kts 206°
2026-05-09 00:56 -21.82805 -43.22451 12063 ft 232 kts 206°
2026-05-09 00:56 -21.84317 -43.23173 12069 ft 241 kts 206°
2026-05-09 00:57 -21.85870 -43.23913 12064 ft 246 kts 206°
2026-05-09 00:57 -21.87440 -43.24663 12062 ft 249 kts 206°
2026-05-09 00:57 -21.89032 -43.25423 12058 ft 251 kts 206°
2026-05-09 00:57 -21.90611 -43.26177 12065 ft 252 kts 206°
2026-05-09 00:58 -21.92217 -43.26945 12056 ft 253 kts 206°
2026-05-09 00:58 -21.93823 -43.27712 12059 ft 253 kts 206°
2026-05-09 00:58 -21.95434 -43.28483 12058 ft 253 kts 206°
2026-05-09 00:58 -21.97051 -43.29255 12062 ft 254 kts 206°
2026-05-09 00:59 -21.98662 -43.30025 12056 ft 253 kts 206°
2026-05-09 00:59 -22.00276 -43.30798 12058 ft 254 kts 206°
2026-05-09 00:59 -22.01890 -43.31571 12058 ft 254 kts 206°
2026-05-09 00:59 -22.03506 -43.32344 12062 ft 254 kts 206°
2026-05-09 01:00 -22.05124 -43.33118 12057 ft 254 kts 206°
2026-05-09 01:00 -22.06740 -43.33892 12056 ft 254 kts 206°
2026-05-09 01:00 -22.08360 -43.34668 12056 ft 254 kts 206°
2026-05-09 01:00 -22.09974 -43.35442 12055 ft 254 kts 206°
2026-05-09 01:01 -22.11570 -43.36207 12054 ft 254 kts 206°
2026-05-09 01:01 -22.13186 -43.36981 12055 ft 255 kts 206°
2026-05-09 01:01 -22.14809 -43.37759 12052 ft 255 kts 206°
2026-05-09 01:01 -22.16428 -43.38536 12056 ft 254 kts 206°
2026-05-09 01:02 -22.18047 -43.39313 12055 ft 255 kts 206°
2026-05-09 01:02 -22.19668 -43.40091 12058 ft 254 kts 206°
2026-05-09 01:02 -22.21285 -43.40866 12055 ft 254 kts 206°
2026-05-09 01:02 -22.22894 -43.41639 12054 ft 254 kts 206°
2026-05-09 01:03 -22.24514 -43.42417 12049 ft 254 kts 206°
2026-05-09 01:03 -22.26136 -43.43196 12047 ft 254 kts 206°
2026-05-09 01:03 -22.27730 -43.43961 12049 ft 254 kts 206°
2026-05-09 01:03 -22.29345 -43.44738 12050 ft 255 kts 206°
2026-05-09 01:04 -22.30967 -43.45517 12049 ft 255 kts 206°
2026-05-09 01:04 -22.32588 -43.46296 12038 ft 254 kts 206°
2026-05-09 01:04 -22.34202 -43.47073 12039 ft 255 kts 206°
2026-05-09 01:04 -22.35298 -43.47601 12040 ft 257 kts 206°
2026-05-09 01:05 -22.36948 -43.48379 12037 ft 258 kts 201°
2026-05-09 01:05 -22.38705 -43.48783 12042 ft 259 kts 190°
2026-05-09 01:05 -22.42305 -43.49431 12030 ft 267 kts 191°
2026-05-09 01:06 -22.44137 -43.49773 12033 ft 267 kts 191°
2026-05-09 01:06 -22.45970 -43.50114 12034 ft 266 kts 191°
2026-05-09 01:06 -22.47793 -43.50451 12027 ft 266 kts 191°
2026-05-09 01:06 -22.49623 -43.50787 12019 ft 267 kts 191°
2026-05-09 01:07 -22.51449 -43.51128 12021 ft 264 kts 191°
2026-05-09 01:07 -22.53258 -43.51463 12020 ft 264 kts 191°
2026-05-09 01:07 -22.55075 -43.51799 12014 ft 265 kts 191°
2026-05-09 01:07 -22.56864 -43.52132 12011 ft 265 kts 191°
2026-05-09 01:08 -22.58685 -43.52469 12006 ft 265 kts 191°
2026-05-09 01:08 -22.60503 -43.52806 12000 ft 263 kts 192°
2026-05-09 01:08 -22.62286 -43.53141 11993 ft 257 kts 191°
2026-05-09 01:08 -22.64009 -43.53455 11996 ft 258 kts 191°
2026-05-09 01:09 -22.65829 -43.53793 11994 ft 259 kts 191°
2026-05-09 01:09 -22.67608 -43.54125 11986 ft 260 kts 191°
2026-05-09 01:09 -22.69395 -43.54457 11985 ft 261 kts 191°
2026-05-09 01:09 -22.71185 -43.54789 11930 ft 263 kts 191°
2026-05-09 01:10 -22.72997 -43.55127 11729 ft 265 kts 191°
2026-05-09 01:10 -22.74818 -43.55466 11513 ft 266 kts 191°
2026-05-09 01:10 -22.76626 -43.55794 11297 ft 266 kts 188°
2026-05-09 01:10 -22.78461 -43.55666 11000 ft 265 kts 165°
2026-05-09 01:11 -22.80251 -43.55153 10541 ft 268 kts 164°
2026-05-09 01:11 -22.82068 -43.54620 10086 ft 271 kts 164°
2026-05-09 01:11 -22.83900 -43.54095 9603 ft 272 kts 165°
2026-05-09 01:11 -22.85718 -43.53578 9101 ft 268 kts 165°
2026-05-09 01:12 -22.87500 -43.53070 8603 ft 262 kts 165°
2026-05-09 01:12 -22.89247 -43.52570 8112 ft 258 kts 166°
2026-05-09 01:12 -22.90906 -43.51916 7620 ft 252 kts 148°
2026-05-09 01:12 -22.92188 -43.50663 7154 ft 247 kts 123°
2026-05-09 01:13 -22.92915 -43.49046 6698 ft 240 kts 101°
2026-05-09 01:13 -22.93041 -43.47268 6240 ft 235 kts 79°
2026-05-09 01:13 -22.92589 -43.45604 5751 ft 226 kts 60°
2026-05-09 01:13 -22.91930 -43.44067 5300 ft 224 kts 59°
2026-05-09 01:14 -22.91288 -43.42558 4951 ft 216 kts 59°
2026-05-09 01:14 -22.90668 -43.41092 4580 ft 211 kts 60°
2026-05-09 01:14 -22.90063 -43.39662 4202 ft 206 kts 60°
2026-05-09 01:14 -22.89471 -43.38269 3829 ft 201 kts 60°
2026-05-09 01:15 -22.88905 -43.36920 3598 ft 190 kts 60°
2026-05-09 01:15 -22.88387 -43.35623 3470 ft 187 kts 70°
2026-05-09 01:15 -22.88375 -43.34168 3404 ft 199 kts 91°
2026-05-09 01:15 -22.88519 -43.32647 3320 ft 206 kts 91°
2026-05-09 01:16 -22.88667 -43.31097 3232 ft 206 kts 91°
2026-05-09 01:16 -22.88812 -43.29560 3099 ft 204 kts 90°
2026-05-09 01:16 -22.88952 -43.28036 2953 ft 201 kts 91°
2026-05-09 01:17 -22.89684 -43.25185 2654 ft 197 kts 113°
2026-05-09 01:17 -22.90283 -43.23863 2508 ft 193 kts 112°
2026-05-09 01:17 -22.90864 -43.22585 2309 ft 184 kts 112°
2026-05-09 01:17 -22.91423 -43.21381 2181 ft 173 kts 112°
2026-05-09 01:18 -22.92003 -43.20282 2018 ft 164 kts 118°
2026-05-09 01:18 -22.92659 -43.19304 1774 ft 154 kts 120°
2026-05-09 01:18 -22.93331 -43.18491 1474 ft 131 kts 126°
2026-05-09 01:18 -22.93824 -43.17739 1090 ft 120 kts 107°
2026-05-09 01:19 -22.93977 -43.16833 768 ft 124 kts 78°
2026-05-09 01:19 -22.93532 -43.16175 408 ft 107 kts 15°
2026-05-09 01:19 -22.92778 -43.16195 237 ft 117 kts
2026-05-09 01:19 -22.91944 -43.16230 108 ft 123 kts 358°
2026-05-09 01:20 -22.91137 -43.16283 23 ft 103 kts 356°
2026-05-09 01:20 -22.90660 -43.16308 26 ft 39 kts 356°
2026-05-09 01:20 -22.90492 -43.16340 23 ft 25 kts 301°
2026-05-09 01:20 -22.90498 -43.16500 25 ft 14 kts 266°
2026-05-09 01:21 -22.90499 -43.16512 25 ft 0 kts 266°